Weather History for Milton, FL

Change the Weather History Date:

Saturday, January 11, 2014

  Actual Average (KNSE) Record (KNSE)
Temperature  
Mean Temperature 62 °F -  
Max Temperature 75 °F 59 °F 75 °F (2000)
Min Temperature 46 °F 40 °F 27 °F (1997)
Degree Days  
Heating Degree Days 4    
Growing Degree Days 12 (Base 50)    
Moisture  
Dew Point 58 °F    
Average Humidity 79    
Maximum Humidity 97    
Minimum Humidity 34    
Precipitation  
Precipitation 0.95 in - - ()
Sea Level Pressure  
Sea Level Pressure 29.88 in    
Wind  
Wind Speed 10 mph (WSW)    
Max Wind Speed 16 mph    
Max Gust Speed 30 mph    
Visibility 6 miles    
Events Fog , Rain    
Averages and records for this station are not official NWS values.
T = Trace of Precipitation, MM = Missing Value Source: NWS Daily Summary

Daily Weather History Graph

Daily Weather History Graph

Search for Another Location

Airport:

Trip Planner

Search our weather history database for the weather conditions in past years. The results will help you decide how hot, cold, wet, or windy it might be!

Date:

Astronomy

Jan. 11, 2014 Rise Set
Actual Time 6:46 AM CST 5:05 PM CST
Civil Twilight 6:20 AM CST 5:31 PM CST
Nautical Twilight 5:50 AM CST 6:01 PM CST
Astronomical Twilight 5:21 AM CST 6:30 PM CST
Moon 1:46 PM CST (1/11) 2:54 AM CST (1/11)
Length of Visible Light 11h 11m
Length of Day
10h 19m
Waxing Gibbous, 83% of the Moon is Illuminated
Jan 11
Waxing Gibbous
Jan 15
Full
Jan 23
Last Quarter
Jan 30
New
Feb 6
First Quarter

Hourly Weather History & Observations

Time (CST) Temp. Dew Point Humidity Pressure Visibility Wind Dir Wind Speed Gust Speed Precip Events Conditions
12:07 AM 68.0 °F 66.0 °F 93% 29.96 in 1.2 mi South 9.2 mph 18.4 mph 0.01 in Rain Light Rain
12:25 AM 66.9 °F 66.0 °F 97% 29.96 in 3.0 mi South 9.2 mph - 0.01 in   Overcast
12:39 AM 66.9 °F 66.0 °F 97% 29.95 in 1.8 mi South 11.5 mph - 0.01 in   Overcast
12:54 AM 66.2 °F 64.4 °F 94% 29.95 in 0.8 mi South 10.4 mph - 0.01 in   Mist
12:56 AM 66.9 °F 64.9 °F 93% 29.91 in 0.8 mi South 10.4 mph - 0.01 in   Mist
1:56 AM 66.9 °F 64.9 °F 93% 29.89 in 0.5 mi South 8.1 mph - N/A Fog Fog
2:56 AM 66.9 °F 64.9 °F 93% 29.86 in 0.5 mi South 15.0 mph - N/A Fog Fog
3:56 AM 66.9 °F 66.0 °F 97% 29.84 in 0.5 mi South 13.8 mph 20.7 mph N/A Fog Fog
4:28 AM 66.9 °F 66.0 °F 97% 29.87 in 1.8 mi South 13.8 mph 23.0 mph 0.05 in Rain Light Rain
4:34 AM 66.9 °F 66.0 °F 97% 29.87 in 3.0 mi South 15.0 mph 25.3 mph 0.05 in Rain Light Rain
4:56 AM 66.9 °F 66.0 °F 97% 29.82 in 7.0 mi SSW 16.1 mph 24.2 mph 0.07 in Rain Light Rain
5:30 AM 69.1 °F 66.9 °F 93% 29.85 in 10.0 mi SSW 12.7 mph 24.2 mph 0.13 in Rain Light Rain
5:56 AM 69.1 °F 66.0 °F 90% 29.81 in 5.0 mi SSW 8.1 mph 19.6 mph 0.21 in Rain Heavy Rain
6:08 AM 68.0 °F 66.0 °F 93% 29.84 in 10.0 mi SSW 11.5 mph 20.7 mph 0.00 in   Overcast
6:56 AM 66.9 °F 64.0 °F 90% 29.81 in 10.0 mi SSW 11.5 mph 23.0 mph 0.00 in   Overcast
7:12 AM 66.9 °F 64.0 °F 90% 29.85 in 2.5 mi SW 8.1 mph 19.6 mph 0.09 in Rain Heavy Rain
7:14 AM 66.9 °F 64.0 °F 90% 29.85 in 1.8 mi SW 8.1 mph 18.4 mph 0.13 in Rain Heavy Rain
7:21 AM 66.9 °F 64.0 °F 90% 29.86 in 2.0 mi SW 15.0 mph 26.5 mph 0.17 in Rain Rain
7:23 AM 68.0 °F 64.0 °F 87% 29.85 in 3.0 mi SSW 10.4 mph 26.5 mph 0.17 in Rain Rain
7:56 AM 68.0 °F 66.0 °F 93% 29.82 in 10.0 mi SSW 9.2 mph 21.9 mph 0.19 in Rain Light Rain
8:51 AM 68.0 °F 64.4 °F 88% 29.91 in 1.8 mi WSW 12.7 mph 29.9 mph 0.23 in Rain Heavy Rain
8:56 AM 68.0 °F 64.0 °F 87% 29.88 in 1.5 mi WSW 9.2 mph 26.5 mph 0.28 in Rain Heavy Rain
8:59 AM 68.0 °F 64.0 °F 87% 29.91 in 2.5 mi West 9.2 mph 26.5 mph 0.01 in Rain Heavy Rain
9:01 AM 68.0 °F 64.0 °F 87% 29.91 in 3.0 mi SW 9.2 mph 16.1 mph 0.02 in Rain Rain
9:56 AM 66.0 °F 63.0 °F 90% 29.86 in 6.0 mi SSW 5.8 mph - 0.17 in Rain Rain
10:07 AM 66.0 °F 63.0 °F 90% 29.91 in 9.0 mi Variable 5.8 mph - 0.02 in Rain Rain
10:28 AM 66.0 °F 63.0 °F 90% 29.91 in 10.0 mi Variable 3.5 mph - 0.02 in   Mostly Cloudy
10:56 AM 66.0 °F 63.0 °F 90% 29.86 in 10.0 mi Variable 5.8 mph - 0.02 in   Overcast
11:56 AM 69.1 °F 64.9 °F 87% 29.82 in 10.0 mi Variable 6.9 mph - N/A   Overcast
12:20 PM 72.0 °F 64.0 °F 76% 29.85 in 10.0 mi WNW 8.1 mph - N/A   Mostly Cloudy
12:34 PM 73.0 °F 63.0 °F 71% 29.84 in 10.0 mi West 8.1 mph - N/A   Scattered Clouds
12:56 PM 72.0 °F 62.1 °F 71% 29.78 in 10.0 mi West 9.2 mph 17.3 mph N/A   Partly Cloudy
1:56 PM 75.9 °F 55.0 °F 48% 29.77 in 10.0 mi West 10.4 mph 20.7 mph N/A   Partly Cloudy
2:56 PM 73.9 °F 55.0 °F 52% 29.78 in 10.0 mi WNW 11.5 mph 18.4 mph N/A   Scattered Clouds
3:56 PM 72.0 °F 53.1 °F 51% 29.81 in 10.0 mi WNW 11.5 mph 18.4 mph N/A   Partly Cloudy
4:56 PM 68.0 °F 46.0 °F 45% 29.84 in 10.0 mi NW 6.9 mph - N/A   Clear
5:56 PM 64.0 °F 37.0 °F 37% 29.88 in 10.0 mi NW 9.2 mph - N/A   Clear
6:56 PM 59.0 °F 37.0 °F 44% 29.92 in 10.0 mi NW 4.6 mph - N/A   Clear
7:56 PM 57.9 °F 32.0 °F 37% 29.97 in 10.0 mi NW 8.1 mph - N/A   Clear
8:56 PM 57.0 °F 28.9 °F 34% 30.01 in 10.0 mi NW 8.1 mph - N/A   Clear
9:56 PM 54.0 °F 30.0 °F 40% 30.03 in 10.0 mi NW 5.8 mph - N/A   Clear
10:56 PM 48.9 °F 32.0 °F 52% 30.05 in 10.0 mi WNW 4.6 mph - N/A   Clear
11:56 PM 46.9 °F 33.1 °F 59% 30.05 in 10.0 mi WNW 4.6 mph - N/A   Clear